Hlavní strana
METAR-TAF:

METAR-TAF

Letiště :

Honningsvåg, Norsko

zeměpisná šířka: 71-01N, zeměpisná délka: 025-59E, výška: 1 m

Aktuální stav počasí

Zpráva byla vytvořena před 1 hodinou a 58 minutami, v 20:50 UTC
Jižní vítr 5 kt
Teplota -4°C
Vlhkost vzduchu 74%
Tlak 1007 hPa
Viditelnost 10 km a více
Žádná oblačnost pod 1500 m, nevyskytují se cumulonimby.

METAR: ENHV 262050Z 19005KT CAVOK M04/M08 Q1007

Čas: 23:48 (22:48 UTC)


TAF: chybějící

Stav a předpovědi počasí z více než 4 000 letišť (zprávy METAR a TAF).

Červené a žluté tečky na mapě představují dostupné meteorologické stanice.

Když kurzor umístíte na tečku, zobrazí se název stanice.

Pak kliknutím zobrazíte stav a předpověď počasí.

Chcete-li změnit mapu, kliknutím na zelené tlačítko se znaménkem +mapu přiblížíte, kliknutím na zelené tlačítko se znaménkem – mapu oddálíte a kliknutím na zelené šipky přejdete na sousední mapy.


METAR-TAF: